Time,TemperatureF,DewpointF,PressureIn,WindDirection,WindDirectionDegrees,WindSpeedMPH,WindSpeedGustMPH,Humidity,HourlyPrecipIn,Conditions,Clouds,dailyrainin,SoftwareType,DateUTC
2013-03-06 00:00:00,35.8,23.8,29.91,NNE,23,2.0,2.5,62,0.00,,,0.00,WSDL version 420,2013-03-06 05:00:00,
2013-03-06 00:03:00,35.8,24.0,29.91,NNE,23,0.0,2.5,62,0.00,,,0.00,WSDL version 420,2013-03-06 05:03:00,
2013-03-06 00:09:00,35.8,24.0,29.91,North,11,1.2,2.9,62,0.00,,,0.00,WSDL version 420,2013-03-06 05:09:00,
2013-03-06 00:15:00,35.7,24.3,29.91,North,360,0.0,2.9,63,0.00,,,0.00,WSDL version 420,2013-03-06 05:15:00,
2013-03-06 00:17:00,35.6,24.3,29.91,North,360,0.0,2.5,63,0.00,,,0.00,WSDL version 420,2013-03-06 05:17:00,
2013-03-06 00:23:00,35.5,24.4,29.91,NE,45,2.5,2.5,64,0.00,,,0.00,WSDL version 420,2013-03-06 05:23:00,
2013-03-06 00:29:00,35.4,24.6,29.91,NE,45,2.6,3.6,65,0.00,,,0.00,WSDL version 420,2013-03-06 05:29:00,
2013-03-06 00:35:00,35.4,24.8,29.91,North,360,0.0,3.6,65,0.00,,,0.00,WSDL version 420,2013-03-06 05:35:00,
2013-03-06 00:41:00,35.4,24.8,29.91,NNE,23,0.7,1.3,65,0.00,,,0.00,WSDL version 420,2013-03-06 05:41:00,
2013-03-06 00:47:00,35.4,24.8,29.91,NNE,28,1.8,2.7,65,0.00,,,0.00,WSDL version 420,2013-03-06 05:47:00,
2013-03-06 00:53:00,35.4,24.8,29.91,NE,34,2.9,3.1,65,0.00,,,0.00,WSDL version 420,2013-03-06 05:53:00,
2013-03-06 00:59:00,35.6,25.0,29.91,NNE,23,3.1,3.1,65,0.00,,,0.00,WSDL version 420,2013-03-06 05:59:00,
2013-03-06 01:05:00,35.5,24.5,29.91,NE,45,3.1,3.1,64,0.00,,,0.00,WSDL version 420,2013-03-06 06:05:00,
2013-03-06 01:11:00,35.7,24.4,29.91,NNE,23,2.9,3.1,62,0.00,,,0.00,WSDL version 420,2013-03-06 06:11:00,
2013-03-06 01:17:00,35.8,24.0,29.91,North,349,1.2,2.9,62,0.00,,,0.00,WSDL version 420,2013-03-06 06:17:00,
2013-03-06 01:23:00,35.7,23.9,29.91,NNE,23,1.1,3.1,62,0.00,,,0.00,WSDL version 420,2013-03-06 06:23:00,
2013-03-06 01:29:00,35.6,24.3,29.91,NNE,23,1.6,2.5,63,0.00,,,0.00,WSDL version 420,2013-03-06 06:29:00,
2013-03-06 01:35:00,35.5,24.5,29.91,NNE,23,1.6,1.6,64,0.00,,,0.00,WSDL version 420,2013-03-06 06:35:00,
2013-03-06 01:41:00,35.5,24.5,29.91,ENE,68,1.3,3.4,64,0.00,,,0.00,WSDL version 420,2013-03-06 06:41:00,
2013-03-06 01:47:00,35.5,24.2,29.91,NE,45,0.0,3.4,63,0.00,,,0.00,WSDL version 420,2013-03-06 06:47:00,
2013-03-06 01:53:00,35.5,24.3,29.91,NE,38,2.2,3.6,64,0.00,,,0.00,WSDL version 420,2013-03-06 06:53:00,
2013-03-06 01:59:00,35.6,24.5,29.91,ENE,75,0.7,3.6,64,0.00,,,0.00,WSDL version 420,2013-03-06 06:59:00,
2013-03-06 02:05:00,35.5,24.4,29.91,NNE,23,4.0,4.0,63,0.00,,,0.00,WSDL version 420,2013-03-06 07:05:00,
2013-03-06 02:11:00,35.9,24.5,29.91,NE,51,3.0,4.0,63,0.00,,,0.00,WSDL version 420,2013-03-06 07:11:00,
2013-03-06 02:17:00,36.0,24.2,29.91,NE,45,3.1,4.0,62,0.00,,,0.00,WSDL version 420,2013-03-06 07:17:00,
2013-03-06 02:24:00,36.1,24.5,29.88,NE,45,3.4,4.9,63,0.00,,,0.00,WSDL version 420,2013-03-06 07:24:00,
2013-03-06 02:30:00,36.0,24.4,29.88,NNE,23,4.5,4.9,62,0.00,,,0.00,WSDL version 420,2013-03-06 07:30:00,
2013-03-06 02:36:00,36.1,24.6,29.88,NNE,23,0.0,4.5,63,0.00,,,0.00,WSDL version 420,2013-03-06 07:36:00,
2013-03-06 02:42:00,36.2,24.5,29.88,NE,56,3.4,3.8,62,0.00,,,0.00,WSDL version 420,2013-03-06 07:42:00,
2013-03-06 02:48:00,36.3,24.5,29.88,NE,45,3.4,3.8,62,0.00,,,0.00,WSDL version 420,2013-03-06 07:48:00,
2013-03-06 02:54:00,36.2,24.4,29.88,NE,45,5.4,5.4,62,0.00,,,0.00,WSDL version 420,2013-03-06 07:54:00,
2013-03-06 03:00:00,36.3,24.5,29.88,NE,45,2.7,5.4,62,0.00,,,0.00,WSDL version 420,2013-03-06 08:00:00,
2013-03-06 03:06:00,36.3,24.6,29.88,NNE,23,3.1,3.1,62,0.00,,,0.00,WSDL version 420,2013-03-06 08:06:00,
2013-03-06 03:12:00,36.3,24.6,29.88,NE,45,3.1,3.1,62,0.00,,,0.00,WSDL version 420,2013-03-06 08:12:00,
2013-03-06 03:18:00,36.3,24.6,29.88,NE,34,2.6,3.1,62,0.00,,,0.00,WSDL version 420,2013-03-06 08:18:00,
2013-03-06 03:24:00,36.3,24.6,29.88,NE,38,2.9,4.9,62,0.00,,,0.00,WSDL version 420,2013-03-06 08:24:00,
2013-03-06 03:30:00,36.3,24.6,29.88,North,349,1.7,5.4,62,0.00,,,0.00,WSDL version 420,2013-03-06 08:30:00,
2013-03-06 03:36:00,36.3,24.6,29.88,NNE,23,2.0,2.5,62,0.00,,,0.00,WSDL version 420,2013-03-06 08:36:00,
2013-03-06 03:42:00,36.3,24.6,29.88,NE,45,7.8,7.8,62,0.00,,,0.00,WSDL version 420,2013-03-06 08:42:00,
2013-03-06 03:48:00,36.3,24.6,29.88,NE,45,2.7,7.8,62,0.00,,,0.00,WSDL version 420,2013-03-06 08:48:00,
2013-03-06 03:54:00,36.3,24.2,29.88,NE,45,4.3,4.3,61,0.00,,,0.00,WSDL version 420,2013-03-06 08:54:00,
2013-03-06 04:00:00,36.4,24.4,29.88,NE,45,4.3,4.3,62,0.00,,,0.00,WSDL version 420,2013-03-06 09:00:00,
2013-03-06 04:06:00,36.3,24.2,29.88,NE,36,4.3,7.8,61,0.00,,,0.00,WSDL version 420,2013-03-06 09:06:00,
2013-03-06 04:12:00,36.4,24.2,29.88,ENE,68,8.1,8.1,61,0.00,,,0.00,WSDL version 420,2013-03-06 09:12:00,
2013-03-06 04:18:00,36.5,24.7,29.88,NE,45,5.7,8.1,62,0.00,,,0.00,WSDL version 420,2013-03-06 09:18:00,
2013-03-06 04:24:00,36.4,24.6,29.85,NE,45,3.8,7.6,62,0.00,,,0.00,WSDL version 420,2013-03-06 09:24:00,
2013-03-06 04:30:00,36.5,24.7,29.85,NE,45,3.8,7.4,62,0.00,,,0.00,WSDL version 420,2013-03-06 09:30:00,
2013-03-06 04:36:00,36.3,25.1,29.85,NE,45,3.8,3.8,63,0.00,,,0.00,WSDL version 420,2013-03-06 09:36:00,
2013-03-06 04:42:00,36.3,25.1,29.88,NE,45,10.3,10.3,63,0.00,,,0.00,WSDL version 420,2013-03-06 09:42:00,
2013-03-06 04:48:00,36.3,25.1,29.88,ENE,68,8.7,10.3,64,0.00,,,0.00,WSDL version 420,2013-03-06 09:48:00,
2013-03-06 04:54:00,36.3,25.3,29.85,East,90,7.8,8.7,64,0.00,,,0.00,WSDL version 420,2013-03-06 09:54:00,
2013-03-06 05:01:00,36.1,25.1,29.85,NE,56,5.9,8.7,64,0.00,,,0.00,WSDL version 420,2013-03-06 10:01:00,
2013-03-06 05:07:00,36.1,25.4,29.85,NE,45,8.1,8.1,65,0.00,,,0.00,WSDL version 420,2013-03-06 10:07:00,
2013-03-06 05:13:00,36.1,25.6,29.88,ENE,68,3.0,8.1,66,0.00,,,0.00,WSDL version 420,2013-03-06 10:13:00,
2013-03-06 05:19:00,36.0,25.7,29.88,NE,45,2.9,3.1,66,0.00,,,0.00,WSDL version 420,2013-03-06 10:19:00,
2013-03-06 05:25:00,36.0,26.2,29.88,NNE,23,6.5,6.5,67,0.00,,,0.00,WSDL version 420,2013-03-06 10:25:00,
2013-03-06 05:31:00,36.0,26.7,29.88,North,360,4.7,7.4,68,0.00,,,0.00,WSDL version 420,2013-03-06 10:31:00,
2013-03-06 05:37:00,36.0,26.4,29.88,ENE,68,4.3,7.4,69,0.00,,,0.00,WSDL version 420,2013-03-06 10:37:00,
2013-03-06 05:43:00,36.0,26.3,29.88,NE,45,6.3,6.3,68,0.00,,,0.00,WSDL version 420,2013-03-06 10:43:00,
2013-03-06 05:49:00,36.0,26.8,29.88,East,90,10.5,10.5,69,0.00,,,0.00,WSDL version 420,2013-03-06 10:49:00,
2013-03-06 05:55:00,36.0,27.1,29.88,East,90,10.1,10.5,71,0.00,,,0.00,WSDL version 420,2013-03-06 10:55:00,
2013-03-06 06:01:00,36.0,27.1,29.88,East,79,4.5,10.1,70,0.00,,,0.00,WSDL version 420,2013-03-06 11:01:00,
2013-03-06 06:07:00,36.0,27.4,29.88,NNE,23,4.9,7.6,70,0.00,,,0.00,WSDL version 420,2013-03-06 11:07:00,
2013-03-06 06:13:00,36.0,27.5,29.88,East,90,10.1,10.1,71,0.00,,,0.00,WSDL version 420,2013-03-06 11:13:00,
2013-03-06 06:19:00,36.0,27.6,29.88,NE,45,6.5,10.3,71,0.00,,,0.00,WSDL version 420,2013-03-06 11:19:00,
2013-03-06 06:25:00,36.0,28.0,29.88,NE,45,9.1,12.5,73,0.00,,,0.00,WSDL version 420,2013-03-06 11:25:00,
2013-03-06 06:31:00,36.0,28.2,29.88,East,79,5.9,12.5,73,0.00,,,0.00,WSDL version 420,2013-03-06 11:31:00,
2013-03-06 06:37:00,35.8,28.2,29.88,NE,45,5.6,7.6,72,0.00,,,0.00,WSDL version 420,2013-03-06 11:37:00,
2013-03-06 06:43:00,35.8,27.9,29.88,NE,45,10.7,10.7,72,0.00,,,0.00,WSDL version 420,2013-03-06 11:43:00,
2013-03-06 06:49:00,35.6,28.6,29.88,ENE,75,5.8,10.7,76,0.00,,,0.00,WSDL version 420,2013-03-06 11:49:00,
2013-03-06 06:55:00,35.7,28.6,29.88,NE,45,5.8,7.6,74,0.00,,,0.00,WSDL version 420,2013-03-06 11:55:00,
2013-03-06 07:02:00,35.8,28.5,29.88,NE,45,9.8,12.1,75,0.00,,,0.00,WSDL version 420,2013-03-06 12:02:00,
2013-03-06 07:08:00,35.8,28.7,29.88,NE,34,3.6,13.2,76,0.00,,,0.00,WSDL version 420,2013-03-06 12:08:00,
2013-03-06 07:14:00,36.0,28.5,29.88,NE,45,3.1,11.0,73,0.00,,,0.00,WSDL version 420,2013-03-06 12:14:00,
2013-03-06 07:20:00,36.0,28.3,29.88,NE,45,6.0,11.0,73,0.00,,,0.00,WSDL version 420,2013-03-06 12:20:00,
2013-03-06 07:26:00,36.1,28.7,29.88,ENE,60,4.0,8.1,74,0.00,,,0.00,WSDL version 420,2013-03-06 12:26:00,
2013-03-06 07:32:00,36.1,28.8,29.88,ENE,68,4.3,12.8,75,0.00,,,0.00,WSDL version 420,2013-03-06 12:32:00,
2013-03-06 07:38:00,36.1,28.4,29.88,NNE,23,5.1,12.8,72,0.00,,,0.00,WSDL version 420,2013-03-06 12:38:00,
2013-03-06 07:44:00,36.3,28.9,29.88,ENE,68,12.8,12.8,75,0.00,,,0.00,WSDL version 420,2013-03-06 12:44:00,
2013-03-06 07:50:00,36.3,28.5,29.88,ENE,68,12.8,12.8,73,0.00,,,0.00,WSDL version 420,2013-03-06 12:50:00,
2013-03-06 07:56:00,36.3,28.8,29.88,North,-999,-999.0,-999.0,74,0.00,,,0.00,WSDL version 420,2013-03-06 12:56:00,
2013-03-06 08:02:00,36.3,28.5,29.88,NE,45,8.7,12.8,74,0.00,,,0.00,WSDL version 420,2013-03-06 13:02:00,
2013-03-06 08:08:00,36.4,29.0,29.88,NE,45,8.7,10.1,74,0.00,,,0.00,WSDL version 420,2013-03-06 13:08:00,
2013-03-06 08:14:00,36.3,29.4,29.88,NE,45,8.7,8.7,75,0.00,,,0.00,WSDL version 420,2013-03-06 13:14:00,
2013-03-06 08:20:00,36.3,29.7,29.88,North,-999,-999.0,-999.0,78,0.00,,,0.00,WSDL version 420,2013-03-06 13:20:00,
2013-03-06 08:26:00,36.3,30.1,29.88,North,-999,-999.0,-999.0,79,0.00,,,0.00,WSDL version 420,2013-03-06 13:26:00,
2013-03-06 08:32:00,36.1,30.9,29.88,North,360,8.7,8.7,81,0.00,,,0.00,WSDL version 420,2013-03-06 13:32:00,
2013-03-06 08:38:00,36.0,31.1,29.88,North,360,2.7,8.7,84,0.00,,,0.00,WSDL version 420,2013-03-06 13:38:00,
2013-03-06 08:44:00,36.0,31.6,29.88,NNE,23,4.0,5.4,84,0.00,,,0.00,WSDL version 420,2013-03-06 13:44:00,
2013-03-06 08:50:00,36.0,31.1,29.88,North,360,3.4,5.4,79,0.00,,,0.00,WSDL version 420,2013-03-06 13:50:00,
2013-03-06 08:56:00,36.0,30.9,29.88,East,90,5.4,7.8,82,0.00,,,0.00,WSDL version 420,2013-03-06 13:56:00,
2013-03-06 09:03:00,36.1,31.7,29.88,ENE,75,9.5,13.0,82,0.00,,,0.00,WSDL version 420,2013-03-06 14:03:00,
2013-03-06 09:09:00,36.1,31.5,29.88,East,83,7.2,13.0,83,0.00,,,0.00,WSDL version 420,2013-03-06 14:09:00,
2013-03-06 09:15:00,36.1,31.1,29.88,East,90,6.3,8.7,82,0.00,,,0.00,WSDL version 420,2013-03-06 14:15:00,
2013-03-06 09:21:00,36.3,30.9,29.88,NNE,23,7.8,9.6,81,0.00,,,0.00,WSDL version 420,2013-03-06 14:21:00,
2013-03-06 09:27:00,36.3,31.6,29.88,ENE,68,5.8,9.6,84,0.00,,,0.00,WSDL version 420,2013-03-06 14:27:00,
2013-03-06 09:33:00,36.4,32.2,29.88,ENE,68,4.4,12.1,83,0.00,,,0.00,WSDL version 420,2013-03-06 14:33:00,
2013-03-06 09:39:00,36.6,31.9,29.88,East,90,4.5,12.1,82,0.00,,,0.00,WSDL version 420,2013-03-06 14:39:00,
2013-03-06 09:45:00,36.7,32.2,29.88,East,90,4.3,6.3,84,0.00,,,0.00,WSDL version 420,2013-03-06 14:45:00,
2013-03-06 09:51:00,36.9,31.8,29.88,NE,56,4.7,6.3,81,0.00,,,0.00,WSDL version 420,2013-03-06 14:51:00,
2013-03-06 09:57:00,37.0,32.5,29.88,NE,45,5.6,6.0,83,0.00,,,0.00,WSDL version 420,2013-03-06 14:57:00,
2013-03-06 10:03:00,37.3,32.4,29.88,NE,45,5.4,8.1,82,0.00,,,0.00,WSDL version 420,2013-03-06 15:03:00,
2013-03-06 10:09:00,37.6,32.8,29.85,NE,45,7.0,8.1,81,0.00,,,0.00,WSDL version 420,2013-03-06 15:09:00,
2013-03-06 10:15:00,37.6,32.2,29.85,NNE,23,12.8,12.8,79,0.00,,,0.00,WSDL version 420,2013-03-06 15:15:00,
2013-03-06 10:21:00,37.6,32.2,29.85,ENE,75,5.2,12.8,81,0.00,,,0.00,WSDL version 420,2013-03-06 15:21:00,
2013-03-06 10:27:00,37.9,32.6,29.85,NE,53,5.3,9.8,80,0.00,,,0.00,WSDL version 420,2013-03-06 15:27:00,
2013-03-06 10:33:00,37.9,32.4,29.85,ENE,75,4.8,13.9,81,0.00,,,0.00,WSDL version 420,2013-03-06 15:33:00,
2013-03-06 10:39:00,37.9,32.4,29.85,NE,45,3.7,7.2,81,0.00,,,0.00,WSDL version 420,2013-03-06 15:39:00,
2013-03-06 10:45:00,37.9,32.9,29.85,SSE,158,9.3,13.0,81,0.00,,,0.00,WSDL version 420,2013-03-06 15:45:00,
2013-03-06 10:52:00,37.6,32.4,29.85,NE,45,4.0,13.0,82,0.00,,,0.00,WSDL version 420,2013-03-06 15:52:00,
2013-03-06 10:58:00,37.8,33.1,29.88,ESE,105,4.8,8.1,84,0.00,,,0.00,WSDL version 420,2013-03-06 15:58:00,
2013-03-06 11:04:00,37.9,33.6,29.88,ENE,68,6.9,8.1,83,0.00,,,0.00,WSDL version 420,2013-03-06 16:04:00,
2013-03-06 11:10:00,37.9,32.7,29.88,East,90,8.1,8.1,80,0.00,,,0.00,WSDL version 420,2013-03-06 16:10:00,
2013-03-06 11:16:00,38.2,33.7,29.88,East,79,2.8,8.1,84,0.00,,,0.00,WSDL version 420,2013-03-06 16:16:00,
2013-03-06 11:22:00,38.6,34.0,29.88,NNW,330,10.1,11.9,81,0.00,,,0.00,WSDL version 420,2013-03-06 16:22:00,
2013-03-06 11:28:00,38.7,33.3,29.85,NNW,338,10.5,11.9,79,0.00,,,0.00,WSDL version 420,2013-03-06 16:28:00,
2013-03-06 11:34:00,39.0,32.8,29.85,NNE,23,7.6,10.7,78,0.00,,,0.00,WSDL version 420,2013-03-06 16:34:00,
2013-03-06 11:40:00,40.8,34.9,29.85,East,90,4.9,9.4,78,0.00,,,0.00,WSDL version 420,2013-03-06 16:40:00,
2013-03-06 11:46:00,41.2,34.6,29.85,NE,45,8.6,13.2,77,0.00,,,0.00,WSDL version 420,2013-03-06 16:46:00,
2013-03-06 11:52:00,40.2,33.6,29.85,NNW,338,6.5,10.3,77,0.00,,,0.00,WSDL version 420,2013-03-06 16:52:00,
2013-03-06 11:58:00,39.3,32.6,29.85,NE,45,9.8,10.3,77,0.00,,,0.00,WSDL version 420,2013-03-06 16:58:00,
2013-03-06 12:04:00,38.9,33.5,29.85,NE,38,5.2,9.8,82,0.00,,,0.00,WSDL version 420,2013-03-06 17:04:00,
2013-03-06 12:12:00,38.9,33.8,29.85,NE,45,9.3,13.2,82,0.00,,,0.00,WSDL version 420,2013-03-06 17:12:00,
2013-03-06 12:18:00,39.1,34.1,29.85,North,360,10.7,13.2,82,0.00,,,0.00,WSDL version 420,2013-03-06 17:18:00,
2013-03-06 12:24:00,39.1,33.9,29.85,ENE,68,7.6,10.7,83,0.00,,,0.00,WSDL version 420,2013-03-06 17:24:00,
2013-03-06 12:31:00,39.2,33.9,29.85,NE,56,7.5,10.5,80,0.00,,,0.00,WSDL version 420,2013-03-06 17:31:00,
2013-03-06 12:37:00,39.4,33.4,29.85,North,360,10.3,12.5,79,0.00,,,0.00,WSDL version 420,2013-03-06 17:37:00,
2013-03-06 12:43:00,39.2,32.4,29.85,NNE,23,12.8,12.8,76,0.00,,,0.00,WSDL version 420,2013-03-06 17:43:00,
2013-03-06 12:49:00,39.6,32.7,29.85,NE,53,4.0,14.8,76,0.00,,,0.00,WSDL version 420,2013-03-06 17:49:00,
2013-03-06 12:55:00,39.4,32.3,29.85,NNE,23,9.6,11.0,76,0.00,,,0.00,WSDL version 420,2013-03-06 17:55:00,
2013-03-06 13:01:00,39.1,33.1,29.85,NNE,23,4.0,9.6,80,0.00,,,0.00,WSDL version 420,2013-03-06 18:01:00,
2013-03-06 13:07:00,39.2,33.5,29.85,NE,39,5.3,7.4,79,0.00,,,0.00,WSDL version 420,2013-03-06 18:07:00,
2013-03-06 13:13:00,39.2,32.6,29.85,ENE,75,9.4,10.3,77,0.00,,,0.00,WSDL version 420,2013-03-06 18:13:00,
2013-03-06 13:19:00,39.6,32.8,29.85,East,90,10.7,10.7,75,0.00,,,0.00,WSDL version 420,2013-03-06 18:19:00,
2013-03-06 13:25:00,39.3,32.1,29.85,NE,38,11.0,12.8,75,0.00,,,0.00,WSDL version 420,2013-03-06 18:25:00,
2013-03-06 13:31:00,38.9,30.7,29.85,North,8,6.3,12.8,71,0.00,,,0.00,WSDL version 420,2013-03-06 18:31:00,
2013-03-06 13:37:00,38.9,30.8,29.85,NE,53,7.5,10.3,72,0.00,,,0.00,WSDL version 420,2013-03-06 18:37:00,
2013-03-06 13:43:00,39.1,30.1,29.85,NE,45,10.3,10.3,68,0.00,,,0.00,WSDL version 420,2013-03-06 18:43:00,
2013-03-06 13:49:00,39.1,29.4,29.85,NE,53,7.3,15.4,67,0.00,,,0.00,WSDL version 420,2013-03-06 18:49:00,
2013-03-06 13:55:00,39.1,28.5,29.85,NE,45,7.9,15.4,64,0.00,,,0.00,WSDL version 420,2013-03-06 18:55:00,
2013-03-06 14:01:00,38.9,27.3,29.85,NE,45,12.5,15.7,63,0.00,,,0.00,WSDL version 420,2013-03-06 19:01:00,
2013-03-06 14:07:00,39.0,27.2,29.85,East,90,15.4,15.4,63,0.00,,,0.00,WSDL version 420,2013-03-06 19:07:00,
2013-03-06 14:13:00,38.9,27.1,29.85,NE,45,6.6,15.4,63,0.00,,,0.00,WSDL version 420,2013-03-06 19:13:00,
2013-03-06 14:20:00,39.0,27.2,29.85,East,98,7.2,10.1,61,0.00,,,0.00,WSDL version 420,2013-03-06 19:20:00,
2013-03-06 14:26:00,38.9,27.3,29.85,NE,45,6.2,10.1,63,0.00,,,0.00,WSDL version 420,2013-03-06 19:26:00,
2013-03-06 14:32:00,38.8,26.8,29.85,NNE,23,7.8,12.8,62,0.00,,,0.00,WSDL version 420,2013-03-06 19:32:00,
2013-03-06 14:38:00,38.7,26.4,29.85,NNE,30,11.0,13.6,62,0.00,,,0.00,WSDL version 420,2013-03-06 19:38:00,
2013-03-06 14:44:00,38.7,26.4,29.85,NE,45,9.0,13.6,61,0.00,,,0.00,WSDL version 420,2013-03-06 19:44:00,
2013-03-06 14:50:00,38.7,26.4,29.85,NNE,30,6.4,10.3,61,0.00,,,0.00,WSDL version 420,2013-03-06 19:50:00,
2013-03-06 14:56:00,38.5,25.8,29.85,NE,45,9.6,11.9,60,0.00,,,0.00,WSDL version 420,2013-03-06 19:56:00,
2013-03-06 15:02:00,38.5,26.0,29.85,NE,45,8.3,11.9,61,0.00,,,0.00,WSDL version 420,2013-03-06 20:02:00,
2013-03-06 15:08:00,38.5,25.8,29.85,NNE,30,11.3,21.9,59,0.00,,,0.00,WSDL version 420,2013-03-06 20:08:00,
2013-03-06 15:14:00,38.7,25.6,29.85,NE,45,9.8,21.9,59,0.00,,,0.00,WSDL version 420,2013-03-06 20:14:00,
2013-03-06 15:21:00,38.7,25.4,29.85,NE,45,3.1,12.8,59,0.00,,,0.00,WSDL version 420,2013-03-06 20:21:00,
2013-03-06 15:27:00,38.5,25.3,29.85,North,360,2.7,12.8,59,0.00,,,0.00,WSDL version 420,2013-03-06 20:27:00,
2013-03-06 15:33:00,38.6,25.7,29.85,East,90,2.7,12.8,60,0.00,,,0.00,WSDL version 420,2013-03-06 20:33:00,
2013-03-06 15:39:00,38.7,25.8,29.85,North,360,6.5,8.1,59,0.00,,,0.00,WSDL version 420,2013-03-06 20:39:00,
2013-03-06 15:45:00,38.5,25.2,29.85,NNE,30,5.4,10.1,58,0.00,,,0.00,WSDL version 420,2013-03-06 20:45:00,
2013-03-06 15:51:00,38.7,25.4,29.85,NNE,23,5.6,7.6,59,0.00,,,0.00,WSDL version 420,2013-03-06 20:51:00,
2013-03-06 15:57:00,38.7,25.4,29.85,NE,45,4.8,5.6,58,0.00,,,0.00,WSDL version 420,2013-03-06 20:57:00,
2013-03-06 16:03:00,38.8,25.7,29.85,North,360,2.7,6.3,59,0.00,,,0.00,WSDL version 420,2013-03-06 21:03:00,
2013-03-06 16:09:00,38.7,25.6,29.85,North,360,4.0,4.0,59,0.00,,,0.00,WSDL version 420,2013-03-06 21:09:00,
2013-03-06 16:15:00,38.5,25.2,29.85,NE,53,7.2,10.3,58,0.00,,,0.00,WSDL version 420,2013-03-06 21:15:00,
2013-03-06 16:21:00,38.5,25.4,29.85,North,360,8.2,10.3,59,0.00,,,0.00,WSDL version 420,2013-03-06 21:21:00,
2013-03-06 16:27:00,38.5,25.3,29.85,NNE,23,5.8,9.8,59,0.00,,,0.00,WSDL version 420,2013-03-06 21:27:00,
2013-03-06 16:33:00,38.3,25.2,29.85,NNE,23,9.8,9.8,59,0.00,,,0.00,WSDL version 420,2013-03-06 21:33:00,
2013-03-06 16:39:00,38.3,25.2,29.85,NNE,23,6.0,13.0,59,0.00,,,0.00,WSDL version 420,2013-03-06 21:39:00,
2013-03-06 16:45:00,38.2,25.1,29.85,ENE,68,2.5,13.0,59,0.00,,,0.00,WSDL version 420,2013-03-06 21:45:00,
2013-03-06 16:51:00,38.1,25.1,29.85,NE,56,4.4,6.3,59,0.00,,,0.00,WSDL version 420,2013-03-06 21:51:00,
2013-03-06 16:57:00,38.0,25.4,29.88,NNE,30,6.7,7.6,60,0.00,,,0.00,WSDL version 420,2013-03-06 21:57:00,
2013-03-06 17:03:00,37.8,25.2,29.88,NE,45,23.3,23.3,60,0.00,,,0.00,WSDL version 420,2013-03-06 22:03:00,
2013-03-06 17:09:00,37.6,25.4,29.88,NE,45,7.6,23.3,61,0.00,,,0.00,WSDL version 420,2013-03-06 22:09:00,
2013-03-06 17:16:00,37.6,25.4,29.88,NE,45,11.9,11.9,61,0.00,,,0.00,WSDL version 420,2013-03-06 22:16:00,
2013-03-06 17:22:00,37.5,25.4,29.88,NE,45,11.9,11.9,61,0.00,,,0.00,WSDL version 420,2013-03-06 22:22:00,
2013-03-06 17:28:00,37.4,25.6,29.88,NNW,338,6.0,11.9,62,0.00,,,0.00,WSDL version 420,2013-03-06 22:28:00,
2013-03-06 17:34:00,37.3,25.7,29.88,NNW,338,6.0,11.9,63,0.00,,,0.00,WSDL version 420,2013-03-06 22:34:00,
2013-03-06 17:40:00,37.1,25.9,29.88,ENE,62,7.1,11.2,64,0.00,,,0.00,WSDL version 420,2013-03-06 22:40:00,
2013-03-06 17:46:00,37.0,26.0,29.88,ENE,68,12.8,12.8,64,0.00,,,0.00,WSDL version 420,2013-03-06 22:46:00,
2013-03-06 17:52:00,36.9,26.0,29.88,ENE,68,12.8,12.8,65,0.00,,,0.00,WSDL version 420,2013-03-06 22:52:00,
2013-03-06 17:58:00,36.9,26.0,29.91,North,360,6.3,12.8,64,0.00,,,0.00,WSDL version 420,2013-03-06 22:58:00,
2013-03-06 18:04:00,36.9,25.8,29.91,ENE,68,7.4,12.8,64,0.00,,,0.00,WSDL version 420,2013-03-06 23:04:00,
2013-03-06 18:10:00,36.9,25.8,29.91,ENE,68,7.4,7.4,64,0.00,,,0.00,WSDL version 420,2013-03-06 23:10:00,
2013-03-06 18:16:00,36.9,25.8,29.91,ENE,68,7.4,7.4,64,0.00,,,0.00,WSDL version 420,2013-03-06 23:16:00,
2013-03-06 18:22:00,36.7,25.6,29.91,NE,45,13.4,13.4,64,0.00,,,0.00,WSDL version 420,2013-03-06 23:22:00,
2013-03-06 18:28:00,36.7,25.5,29.91,NE,45,13.4,13.4,64,0.00,,,0.00,WSDL version 420,2013-03-06 23:28:00,
2013-03-06 18:34:00,36.7,25.3,29.91,NE,45,8.7,13.4,63,0.00,,,0.00,WSDL version 420,2013-03-06 23:34:00,
2013-03-06 18:40:00,36.5,25.1,29.94,NE,45,8.7,8.7,63,0.00,,,0.00,WSDL version 420,2013-03-06 23:40:00,
2013-03-06 18:46:00,36.6,25.2,29.94,North,-999,-999.0,-999.0,63,0.00,,,0.00,WSDL version 420,2013-03-06 23:46:00,
2013-03-06 18:52:00,36.2,25.7,29.94,North,-999,-999.0,-999.0,66,0.00,,,0.00,WSDL version 420,2013-03-06 23:52:00,
2013-03-06 18:58:00,35.8,26.4,29.94,North,-999,-999.0,-999.0,71,0.00,,,0.00,WSDL version 420,2013-03-06 23:58:00,
2013-03-06 19:04:00,35.4,27.0,29.94,NE,45,4.3,4.3,71,0.00,,,0.00,WSDL version 420,2013-03-07 00:04:00,
2013-03-06 19:10:00,35.5,26.6,29.94,NE,45,4.0,4.3,70,0.00,,,0.00,WSDL version 420,2013-03-07 00:10:00,
2013-03-06 19:17:00,35.5,26.8,29.94,NE,45,4.0,4.0,70,0.00,,,0.00,WSDL version 420,2013-03-07 00:17:00,
2013-03-06 19:23:00,35.4,26.2,29.94,NE,45,8.1,8.1,69,0.00,,,0.00,WSDL version 420,2013-03-07 00:23:00,
2013-03-06 19:29:00,35.4,26.3,29.94,NE,45,8.1,8.1,69,0.00,,,0.00,WSDL version 420,2013-03-07 00:29:00,
2013-03-06 19:35:00,35.4,25.8,29.94,NE,45,7.2,8.1,68,0.00,,,0.00,WSDL version 420,2013-03-07 00:35:00,
2013-03-06 19:41:00,35.4,25.6,29.94,NE,45,7.2,7.2,67,0.00,,,0.00,WSDL version 420,2013-03-07 00:41:00,
2013-03-06 19:47:00,35.4,25.6,29.94,NE,45,7.2,7.2,67,0.00,,,0.00,WSDL version 420,2013-03-07 00:47:00,
2013-03-06 19:53:00,35.4,25.2,29.91,NE,45,7.2,7.2,66,0.00,,,0.00,WSDL version 420,2013-03-07 00:53:00,
2013-03-06 19:59:00,35.4,24.8,29.91,NE,45,7.2,7.2,65,0.00,,,0.00,WSDL version 420,2013-03-07 00:59:00,
2013-03-06 20:05:00,35.4,24.8,29.91,North,-999,-999.0,-999.0,65,0.00,,,0.00,WSDL version 420,2013-03-07 01:05:00,
2013-03-06 20:11:00,35.4,24.8,29.94,North,-999,-999.0,-999.0,65,0.00,,,0.00,WSDL version 420,2013-03-07 01:11:00,
2013-03-06 20:17:00,35.5,24.5,29.94,North,-999,-999.0,-999.0,64,0.00,,,0.00,WSDL version 420,2013-03-07 01:17:00,
2013-03-06 20:23:00,35.5,24.5,29.91,North,-999,-999.0,-999.0,64,0.00,,,0.00,WSDL version 420,2013-03-07 01:23:00,
2013-03-06 20:29:00,35.4,24.3,29.91,NNE,23,10.0,12.8,64,0.00,,,0.00,WSDL version 420,2013-03-07 01:29:00,
2013-03-06 20:35:00,35.4,24.1,29.91,NE,45,4.0,12.8,63,0.00,,,0.00,WSDL version 420,2013-03-07 01:35:00,
2013-03-06 20:41:00,35.4,24.1,29.91,ENE,68,10.5,10.5,63,0.00,,,0.00,WSDL version 420,2013-03-07 01:41:00,
2013-03-06 20:47:00,35.4,24.0,29.91,NNE,23,10.3,12.1,62,0.00,,,0.00,WSDL version 420,2013-03-07 01:47:00,
2013-03-06 20:53:00,35.4,24.1,29.91,NE,45,12.3,12.3,63,0.00,,,0.00,WSDL version 420,2013-03-07 01:53:00,
2013-03-06 20:59:00,35.3,24.0,29.91,ENE,60,15.7,16.8,63,0.00,,,0.00,WSDL version 420,2013-03-07 01:59:00,
2013-03-06 21:05:00,35.2,23.9,29.91,East,90,15.2,16.8,63,0.00,,,0.00,WSDL version 420,2013-03-07 02:05:00,
2013-03-06 21:11:00,35.2,23.8,29.91,East,90,15.2,15.2,63,0.00,,,0.00,WSDL version 420,2013-03-07 02:11:00,
2013-03-06 21:18:00,35.2,23.8,29.91,NE,45,5.6,15.2,62,0.00,,,0.00,WSDL version 420,2013-03-07 02:18:00,
2013-03-06 21:24:00,35.4,23.6,29.91,NNE,23,9.6,9.6,62,0.00,,,0.00,WSDL version 420,2013-03-07 02:24:00,
2013-03-06 21:30:00,35.2,23.5,29.91,NNE,23,6.3,12.8,62,0.00,,,0.00,WSDL version 420,2013-03-07 02:30:00,
2013-03-06 21:36:00,35.2,23.5,29.91,ENE,60,8.4,12.8,62,0.00,,,0.00,WSDL version 420,2013-03-07 02:36:00,
2013-03-06 21:42:00,35.2,23.5,29.91,NE,53,11.3,13.0,62,0.00,,,0.00,WSDL version 420,2013-03-07 02:42:00,
2013-03-06 21:48:00,35.2,23.5,29.91,ENE,68,6.0,13.0,62,0.00,,,0.00,WSDL version 420,2013-03-07 02:48:00,
2013-03-06 21:54:00,35.2,23.5,29.91,NE,45,12.8,12.8,62,0.00,,,0.00,WSDL version 420,2013-03-07 02:54:00,
2013-03-06 22:00:00,35.2,23.5,29.91,ENE,60,6.4,14.8,62,0.00,,,0.00,WSDL version 420,2013-03-07 03:00:00,
2013-03-06 22:06:00,35.2,23.5,29.91,NE,34,16.4,18.1,62,0.00,,,0.00,WSDL version 420,2013-03-07 03:06:00,
2013-03-06 22:12:00,35.2,23.5,29.91,North,360,12.3,18.1,62,0.00,,,0.00,WSDL version 420,2013-03-07 03:12:00,
2013-03-06 22:18:00,35.1,23.4,29.91,North,360,7.4,12.8,62,0.00,,,0.00,WSDL version 420,2013-03-07 03:18:00,
2013-03-06 22:24:00,35.1,23.4,29.91,NNE,23,4.3,12.3,62,0.00,,,0.00,WSDL version 420,2013-03-07 03:24:00,
2013-03-06 22:30:00,35.1,23.4,29.91,NE,45,5.4,13.0,62,0.00,,,0.00,WSDL version 420,2013-03-07 03:30:00,
2013-03-06 22:36:00,35.1,23.4,29.91,NE,45,6.5,13.0,62,0.00,,,0.00,WSDL version 420,2013-03-07 03:36:00,
2013-03-06 22:42:00,35.1,23.4,29.91,North,360,10.5,10.5,62,0.00,,,0.00,WSDL version 420,2013-03-07 03:42:00,
2013-03-06 22:48:00,35.1,23.0,29.91,North,360,4.8,10.5,61,0.00,,,0.00,WSDL version 420,2013-03-07 03:48:00,
2013-03-06 22:54:00,35.1,23.0,29.91,NNE,23,6.0,6.0,61,0.00,,,0.00,WSDL version 420,2013-03-07 03:54:00,
2013-03-06 23:00:00,35.1,23.0,29.91,NNE,23,2.6,6.0,61,0.00,,,0.00,WSDL version 420,2013-03-07 04:00:00,
2013-03-06 23:06:00,34.9,23.0,29.91,NNE,23,2.9,3.6,61,0.00,,,0.00,WSDL version 420,2013-03-07 04:06:00,
2013-03-06 23:12:00,34.9,22.9,29.91,NNE,23,13.6,13.6,61,0.00,,,0.00,WSDL version 420,2013-03-07 04:12:00,
2013-03-06 23:19:00,34.9,22.8,29.91,NNW,338,6.0,13.6,61,0.00,,,0.00,WSDL version 420,2013-03-07 04:19:00,
2013-03-06 23:25:00,34.9,22.8,29.91,NNE,23,3.4,13.6,61,0.00,,,0.00,WSDL version 420,2013-03-07 04:25:00,
2013-03-06 23:31:00,34.9,22.8,29.91,NNE,30,7.8,8.7,61,0.00,,,0.00,WSDL version 420,2013-03-07 04:31:00,
2013-03-06 23:37:00,34.9,22.8,29.91,NNW,338,8.1,10.7,61,0.00,,,0.00,WSDL version 420,2013-03-07 04:37:00,
2013-03-06 23:43:00,34.9,22.8,29.91,NE,45,3.1,10.7,61,0.00,,,0.00,WSDL version 420,2013-03-07 04:43:00,
2013-03-06 23:49:00,34.8,22.7,29.91,NE,45,3.1,8.5,61,0.00,,,0.00,WSDL version 420,2013-03-07 04:49:00,
2013-03-06 23:55:00,34.8,22.7,29.91,NE,45,3.1,3.1,61,0.00,,,0.00,WSDL version 420,2013-03-07 04:55:00,